Location: Newark
(45.2500°N, 7.5833°E)
Time: 06:31:11
(UTC+00:00)

N. Korean satellite - Pass Details

Date: 18 December 2019
Orbit: 454 x 507 km, 97.2° (Epoch: 27 January)

Event Time Altitude Azimuth Distance (km) Brightness Sun altitude
Rises 04:43:39 0° 24° (NNE) 2,516 10.4 -23.6°
Reaches altitude 10° 04:45:58 10° 37° (NE) 1,625 9.5 -23.2°
Maximum altitude 04:48:55 25° 95° (E) 967 8.8 -22.7°
Drops below altitude 10° 04:51:48 10° 153° (SSE) 1,596 9.7 -22.2°
Sets 04:54:03 0° 167° (SSE) 2,460 10.5 -21.8°
